TimeEST,TemperatureF,Dew PointF,Humidity,Sea Level PressureIn,VisibilityMPH,Wind Direction,Wind SpeedMPH,Gust SpeedMPH,PrecipitationIn,Events,Conditions,WindDirDegrees,DateUTC
12:52 AM,21.0,7.0,55,29.56,10.0,WNW,23.0,32.2,N/A,,Overcast,300,2014-01-07 05:52:00
1:52 AM,14.0,-5.1,43,29.62,10.0,WNW,16.1,28.8,N/A,,Mostly Cloudy,300,2014-01-07 06:52:00
2:52 AM,12.0,-6.0,44,29.68,10.0,NW,11.5,-,N/A,,Overcast,310,2014-01-07 07:52:00
3:52 AM,10.0,-7.1,46,29.70,10.0,WNW,15.0,24.2,N/A,,Overcast,290,2014-01-07 08:52:00
4:52 AM,8.1,-8.0,48,29.74,10.0,WNW,16.1,28.8,N/A,,Partly Cloudy,290,2014-01-07 09:52:00
5:52 AM,7.0,-9.0,48,29.78,10.0,WNW,17.3,28.8,N/A,,Clear,290,2014-01-07 10:52:00
6:52 AM,7.0,-9.0,48,29.82,10.0,WNW,17.3,31.1,N/A,,Clear,290,2014-01-07 11:52:00
7:52 AM,6.1,-7.1,55,29.86,10.0,West,13.8,23.0,N/A,,Partly Cloudy,280,2014-01-07 12:52:00
8:52 AM,7.0,-7.1,53,29.92,10.0,West,20.7,29.9,N/A,,Mostly Cloudy,280,2014-01-07 13:52:00
9:52 AM,7.0,-6.0,55,29.96,10.0,West,15.0,27.6,N/A,,Overcast,270,2014-01-07 14:52:00
10:52 AM,9.0,-9.0,44,29.96,10.0,WNW,16.1,31.1,N/A,,Scattered Clouds,300,2014-01-07 15:52:00
11:52 AM,10.0,-9.9,40,29.96,10.0,West,12.7,20.7,N/A,,Partly Cloudy,270,2014-01-07 16:52:00
12:52 PM,9.0,-11.9,38,29.96,10.0,WNW,16.1,24.2,N/A,,Clear,300,2014-01-07 17:52:00
1:52 PM,9.0,-13.0,36,29.99,10.0,West,17.3,23.0,N/A,,Scattered Clouds,260,2014-01-07 18:52:00
2:52 PM,7.0,-13.0,40,30.03,10.0,West,16.1,26.5,N/A,,Clear,270,2014-01-07 19:52:00
3:52 PM,7.0,-15.0,36,30.07,10.0,West,12.7,26.5,N/A,,Scattered Clouds,270,2014-01-07 20:52:00
4:52 PM,6.1,-14.1,39,30.09,10.0,West,15.0,21.9,N/A,,Overcast,260,2014-01-07 21:52:00
5:52 PM,5.0,-13.0,43,30.12,10.0,WSW,9.2,24.2,N/A,,Clear,240,2014-01-07 22:52:00
6:52 PM,5.0,-13.0,43,30.15,10.0,SW,8.1,-,N/A,,Clear,220,2014-01-07 23:52:00
7:52 PM,5.0,-14.1,41,30.17,10.0,West,10.4,-,N/A,,Clear,260,2014-01-08 00:52:00
8:52 PM,5.0,-14.1,41,30.19,10.0,SW,9.2,-,N/A,,Clear,220,2014-01-08 01:52:00
9:52 PM,3.9,-13.0,46,30.20,10.0,SSW,8.1,-,N/A,,Clear,200,2014-01-08 02:52:00
10:52 PM,5.0,-11.9,46,30.21,10.0,SSW,8.1,-,N/A,,Clear,210,2014-01-08 03:52:00
11:52 PM,3.9,-9.9,53,30.22,10.0,SSW,11.5,-,N/A,,Clear,210,2014-01-08 04:52:00